Showing default

DODGE 1, 2867

Orbit data source: Space-Track

DODGE 1, 2867 is a payload satellite owned by USN NAVAIR (US) in GEO that was launched on Sat, 01 Jul 1967 UTC via a TITAN IIIC launch vehicle from the Air Force Eastern Test Range (AFETR). Payload-class satellites include a variety of spacecraft equipped with specific instruments for various scientific and technological missions. These include communications satellites like Starlink; space stations such as the ISS; scientific satellites like the Hubble; Earth observation satellites from companies like Planet Labs, Umbra, and HawkEye 360; GPS; miniature CubeSats for education and research; and military/defense satellites.

Not visible in the next 10 days
Identifier
2867, 1967-066F
Orbit
GEO
Country
Flag of USUS
Related business
Manufacturer
APL
Mission
Spacecraft
Bus & Motor
DODGE, Unknown motor
Mass
195 kg wet, 195 kg dry
Launch date (UTC)
1967-07-01 (59 years ago)
Launch vehicle
TITAN IIIC
Launch site
Air Force Eastern Test Range (AFETR)
Object type
Payload
Rocket body
Debris
Shape & HBR
Unknown
Radar Cross Section
Large (>1 m²)

Expand to show TLE details & history
Last TLE update: 9 hours ago

TLE from 9 hours ago
0 DODGE 1
1  2867U 67066F   26037.05367406 -.00000053  00000-0  00000+0 0  9995
2  2867   2.1932 102.1778 0054909 186.8370 218.2967  1.09167173131957
Epoch: 2026-02-06T01:17Z
TLE epoch observation values (Epoch: 2026-02-06T01:17:17.438Z)
Latitude
1.55825°
Longitude
-8.58899°
Altitude
33,635.936 km
Speed
3.149 km/s
True Right ascension
09h 47m 43s
True Declination
1° 33' 24"
Sunlit
Object was in daylight at epoch
Visualization orbit readout
Latitude
Unknown
Longitude
Unknown
Altitude
Unknown
Speed
Unknown
Apparent Right ascension
Unknown
Apparent Declination
Unknown
Sunlit
N/A
Visualization observer readout
Local Sidereal Time
12:42:50
Azimuth
Unknown
Elevation
Unknown
Doppler factor
Unknown
Orbital elements
Apogee altitude
33,683.704 km
Perigee altitude
33,246.155 km
Semi-major axis
39,843.066 km
Eccentricity
0.00549
Inclination
2.1932°
RAAN
102.1778°
Arg. of periapsis
186.837°
True anomaly
217.90885°
Mean anomaly
218.2967°
Eccentric anomaly
218.10257°
Mean motion
0.27291 °/min
Orbital period
1,319.13 mins
BSTAR
0
Loading maneuver chart data...
Computing Atmospheric mass density...
Loading historical data...
Loading historical data...
Loading historical data...
Loading historical data...
Loading historical data...
Loading historical data...
Loading historical data...

Documentation

Showing up to 5 results
|